Date String (YYYY-MM-DD hh:mm:ss) UTC,Instrument flags,absolute air pressure of the measurement (hPa),sample flow rate (lpm),inlet stack bypass flow (lpm),air temperature of the measurement (°C),ambient temperature measured by the external sensor (°C),aerosol sample conditioner tube jacket temperature (°C),OPC LED temperature (°C),internal box temperature (°C),relative humidity of the measurement (%),span deviation,mass concentration of particles derived from Lorenz-Mie calculation of OPC scattering (μg/m³),mass concentration of particles derived from Lorenz-Mie calculation of OPC scattering (μg/m³),mass concentration of particles derived from Lorenz-Mie calculation of OPC scattering (μg/m³)
DateTimeUTC,F1_M11,P_M11,Q1_M11,Q2_M11,T1_M11,T2_M11,T3_M11,T4_M11,T5_M11,U1_M11,ZSPAN_M11,X2_M11,X0_M11,X1_M11
2023-10-14 16:00:00,SystemResetWarning,0837.7,5.01,000.00,026.0,024.7,000.0,034.4,027.8,15.0,0000.0,0003.93,0009.30,0003.46
2023-10-14 16:01:00,SystemResetWarning,0837.7,5.00,000.00,026.0,024.7,000.0,034.4,027.8,14.9,0000.0,0003.95,0009.51,0003.47
2023-10-14 16:02:00,SystemResetWarning,0837.7,5.00,000.00,026.0,024.7,000.0,034.4,027.8,15.0,0000.0,0003.95,0009.98,0003.48
2023-10-14 16:03:00,SystemResetWarning,0837.7,5.00,000.00,026.0,024.7,000.0,034.4,027.8,15.0,0000.0,0003.96,0009.34,0003.49
2023-10-14 16:04:00,SystemResetWarning,0837.7,4.99,000.00,026.1,024.7,000.0,034.4,027.8,15.0,0000.0,0003.95,0009.36,0003.49
2023-10-14 16:05:00,SystemResetWarning,0837.7,5.00,000.00,026.1,024.7,000.0,034.4,027.8,15.1,0000.0,0003.96,0009.75,0003.50
2023-10-14 16:06:00,SystemResetWarning,0837.7,5.00,000.00,026.1,024.7,000.0,034.4,027.8,15.1,0000.0,0003.96,0010.06,0003.51
2023-10-14 16:07:00,SystemResetWarning,0837.7,5.01,000.00,026.1,024.7,000.0,034.4,027.8,15.1,0000.0,0003.94,0009.60,0003.53
2023-10-14 16:08:00,SystemResetWarning,0837.7,5.00,000.00,026.1,024.7,000.0,034.4,027.8,15.2,0000.0,0003.92,0009.41,0003.53
2023-10-14 16:09:00,SystemResetWarning,0837.8,5.00,000.00,026.1,024.7,000.0,034.4,027.8,15.2,0000.0,0003.91,0009.26,0003.54
2023-10-14 16:10:00,SystemResetWarning,0837.8,5.00,000.00,026.1,024.7,000.0,034.4,027.8,15.1,0000.0,0003.93,0009.74,0003.54
2023-10-14 16:11:00,SystemResetWarning,0837.8,5.00,000.00,026.1,024.7,000.0,034.4,027.8,15.0,0000.0,0003.93,0010.00,0003.54
2023-10-14 16:12:00,SystemResetWarning,0837.8,5.00,000.00,026.1,024.7,000.0,034.4,027.8,15.0,0000.0,0003.93,0009.88,0003.54
2023-10-14 16:13:00,SystemResetWarning,0837.8,5.00,000.00,026.1,024.7,000.0,034.4,027.8,15.0,0000.0,0003.91,0009.34,0003.54
2023-10-14 16:14:00,SystemResetWarning,0837.7,5.01,000.00,026.1,024.7,000.0,034.5,027.8,15.0,0000.0,0003.88,0009.10,0003.54
2023-10-14 16:15:00,SystemResetWarning,0837.7,5.01,000.00,026.1,024.7,000.0,034.5,027.8,15.0,0000.0,0003.87,0008.93,0003.56
2023-10-14 16:16:00,SystemResetWarning,0837.7,5.01,000.00,026.1,024.7,000.0,034.4,027.8,15.0,0000.0,0003.85,0008.12,0003.57
2023-10-14 16:17:00,SystemResetWarning,0837.7,4.99,000.00,026.1,024.6,000.0,034.4,027.7,15.0,0000.0,0003.86,0007.74,0003.58
2023-10-14 16:18:00,SystemResetWarning,0837.7,4.99,000.00,026.0,024.6,000.0,034.4,027.7,15.0,0000.0,0003.86,0007.57,0003.60
2023-10-14 16:19:00,SystemResetWarning,0837.7,5.00,000.00,026.0,024.6,000.0,034.4,027.7,15.1,0000.0,0003.85,0007.61,0003.61
2023-10-14 16:20:00,SystemResetWarning,0837.7,5.01,000.00,026.0,024.6,000.0,034.4,027.7,15.1,0000.0,0003.87,0007.61,0003.64
2023-10-14 16:21:00,SystemResetWarning,0837.8,5.01,000.00,026.0,024.6,000.0,034.4,027.7,15.1,0000.0,0003.89,0007.52,0003.65
2023-10-14 16:22:00,SystemResetWarning,0837.8,5.01,000.00,026.0,024.6,000.0,034.4,027.7,15.1,0000.0,0003.93,0007.41,0003.66
2023-10-14 16:23:00,SystemResetWarning,0837.8,4.99,000.00,026.0,024.5,000.0,034.4,027.7,15.1,0000.0,0003.93,0007.32,0003.67
2023-10-14 16:24:00,SystemResetWarning,0837.8,4.99,000.00,026.0,024.5,000.0,034.4,027.8,15.1,0000.0,0003.95,0007.47,0003.68
2023-10-14 16:25:00,SystemResetWarning,0837.9,4.99,000.00,026.0,024.6,000.0,034.4,027.8,15.0,0000.0,0003.96,0007.56,0003.69
2023-10-14 16:26:00,SystemResetWarning,0837.9,5.01,000.00,026.1,024.6,000.0,034.5,027.8,15.0,0000.0,0003.98,0007.40,0003.68
2023-10-14 16:27:00,SystemResetWarning,0837.8,5.01,000.00,026.1,024.6,000.0,034.5,027.8,15.0,0000.0,0003.99,0007.41,0003.68
2023-10-14 16:28:00,SystemResetWarning,0837.8,5.01,000.00,026.1,024.6,000.0,034.5,027.8,15.0,0000.0,0004.01,0007.45,0003.68
2023-10-14 16:29:00,SystemResetWarning,0837.7,5.00,000.00,026.1,024.6,000.0,034.5,027.8,15.0,0000.0,0004.02,0007.31,0003.68
2023-10-14 16:30:00,SystemResetWarning,0837.7,5.00,000.00,026.1,024.6,000.0,034.5,027.8,14.9,0000.0,0004.04,0007.33,0003.68
2023-10-14 16:31:00,SystemResetWarning,0837.8,4.99,000.00,026.1,024.6,000.0,034.5,027.8,14.9,0000.0,0004.06,0007.48,0003.68
2023-10-14 16:32:00,SystemResetWarning,0837.8,4.99,000.00,026.1,024.6,000.0,034.4,027.8,15.0,0000.0,0004.05,0007.31,0003.69
2023-10-14 16:33:00,SystemResetWarning,0837.8,5.00,000.00,026.1,024.6,000.0,034.4,027.8,15.0,0000.0,0004.01,0006.67,0003.70
2023-10-14 16:34:00,SystemResetWarning,0837.7,5.00,000.00,026.0,024.6,000.0,034.4,027.7,15.0,0000.0,0004.04,0007.08,0003.72
2023-10-14 16:35:00,SystemResetWarning,0837.8,5.00,000.00,026.0,024.5,000.0,034.4,027.7,15.0,0000.0,0004.05,0007.86,0003.73
2023-10-14 16:36:00,SystemResetWarning,0837.8,5.00,000.00,026.0,024.5,000.0,034.4,027.7,15.0,0000.0,0004.06,0008.14,0003.75
2023-10-14 16:37:00,SystemResetWarning,0837.8,5.00,000.00,026.0,024.5,000.0,034.4,027.7,15.0,0000.0,0004.04,0008.00,0003.76
2023-10-14 16:38:00,SystemResetWarning,0837.8,5.01,000.00,026.0,024.5,000.0,034.4,027.7,14.9,0000.0,0004.06,0008.01,0003.77
2023-10-14 16:39:00,SystemResetWarning,0837.8,5.00,000.00,026.0,024.5,000.0,034.4,027.7,15.0,0000.0,0004.08,0008.21,0003.78
2023-10-14 16:40:00,SystemResetWarning,0837.8,5.00,000.00,026.0,024.5,000.0,034.4,027.7,14.9,0000.0,0004.07,0008.23,0003.78
2023-10-14 16:41:00,SystemResetWarning,0837.7,5.00,000.00,026.0,024.5,000.0,034.4,027.7,14.9,0000.0,0004.06,0008.12,0003.79
2023-10-14 16:42:00,SystemResetWarning,0837.8,5.00,000.00,026.0,024.5,000.0,034.4,027.7,14.9,0000.0,0004.04,0008.48,0003.79
2023-10-14 16:43:00,SystemResetWarning,0837.8,5.00,000.00,026.0,024.5,000.0,034.4,027.6,14.9,0000.0,0004.03,0008.65,0003.79
2023-10-14 16:44:00,SystemResetWarning,0837.8,4.99,000.00,026.0,024.5,000.0,034.4,027.6,15.0,0000.0,0004.04,0008.67,0003.79
2023-10-14 16:45:00,SystemResetWarning,0837.8,4.99,000.00,025.9,024.4,000.0,034.4,027.6,15.0,0000.0,0004.03,0008.59,0003.79
2023-10-14 16:46:00,SystemResetWarning,0837.8,4.99,000.00,025.9,024.4,000.0,034.4,027.6,15.0,0000.0,0004.01,0008.10,0003.79
2023-10-14 16:47:00,SystemResetWarning,0837.8,5.00,000.00,025.9,024.4,000.0,034.4,027.5,15.0,0000.0,0004.01,0007.37,0003.79
2023-10-14 16:48:00,SystemResetWarning,0837.8,5.01,000.00,025.9,024.4,000.0,034.4,027.5,15.1,0000.0,0004.02,0007.40,0003.80
2023-10-14 16:49:00,SystemResetWarning,0837.7,5.01,000.00,025.8,024.3,000.0,034.3,027.5,15.1,0000.0,0004.03,0007.88,0003.81
2023-10-14 16:50:00,SystemResetWarning,0837.7,5.00,000.00,025.8,024.3,000.0,034.3,027.4,15.2,0000.0,0004.03,0007.88,0003.82
2023-10-14 16:51:00,SystemResetWarning,0837.8,5.00,000.00,025.8,024.3,000.0,034.3,027.4,15.2,0000.0,0004.04,0007.76,0003.83
2023-10-14 16:52:00,SystemResetWarning,0837.8,5.00,000.00,025.8,024.3,000.0,034.3,027.4,15.3,0000.0,0004.10,0007.92,0003.84
2023-10-14 16:53:00,SystemResetWarning,0837.8,5.00,000.00,025.8,024.3,000.0,034.3,027.4,15.3,0000.0,0004.15,0007.91,0003.86
2023-10-14 16:54:00,SystemResetWarning,0837.7,4.99,000.00,025.8,024.2,000.0,034.3,027.4,15.4,0000.0,0004.19,0007.34,0003.88
2023-10-14 16:55:00,SystemResetWarning,0837.8,4.99,000.00,025.8,024.3,000.0,034.3,027.4,15.4,0000.0,0004.21,0007.37,0003.91
2023-10-14 16:56:00,SystemResetWarning,0837.8,5.00,000.00,025.7,024.3,000.0,034.2,027.4,15.5,0000.0,0004.23,0007.38,0003.94
2023-10-14 16:57:00,SystemResetWarning,0837.8,5.00,000.00,025.7,024.3,000.0,034.2,027.4,15.5,0000.0,0004.24,0007.29,0003.95
2023-10-14 16:58:00,SystemResetWarning,0837.8,5.00,000.00,025.7,024.3,000.0,034.2,027.4,15.5,0000.0,0004.27,0007.30,0003.97
2023-10-14 16:59:00,SystemResetWarning,0837.7,5.00,000.00,025.8,024.3,000.0,034.2,027.4,15.6,0000.0,0004.29,0007.32,0003.97
